Regional Weather Roundup
Issued by NWS

Home | Current Version | Previous Version | Graphics & Text | Print | Product List | Glossary On
Versions: 1 2 3 4 5 6 7 8 9 10 11 12 13 14 15 16 17 18 19 20 21 22 23 24 25 26 27 28 29 30 31 32 33 34 35 36 37 38 39 40 41 42 43 44 45 46 47 48 49 50
585
ASUS45 KCYS 281210
RWRWY

WYOMING REGIONAL WEATHER ROUNDUP
NATIONAL WEATHER SERVICE CHEYENNE WY
600 AM MDT TUE MAR 28 2017

NOTE:  "FAIR" INDICATES FEW OR NO CLOUDS BELOW 12,000 FEET
WITH NO SIGNIFICANT WEATHER AND/OR OBSTRUCTIONS TO VISIBILITY.

WYZ001-281300-
YELLOWSTONE NATIONAL PARK

CITY           SKY/WX    TMP DP  RH WIND       PRES   REMARKS
LK YELLOWSTONE   N/A     24  21  88 CALM      30.08R
6HR MIN TEMP:  24; 6HR MAX TEMP:  28;

W YELLOWSTONE  NOT AVBL

$$
WYZ002>013-054>058-071-098>099-281300-
NORTHERN WYOMING

CITY           SKY/WX    TMP DP  RH WIND       PRES   REMARKS
JACKSON        FAIR      32  28  86 NE5       30.05R WCI  27
CODY           MOCLDY    35  33  92 N7        30.06R WCI  29
GREYBULL       CLOUDY    41  33  73 NW22      30.00R
6HR MIN TEMP:  40; 6HR MAX TEMP:  46;

WORLAND        CLOUDY    39  36  89 N15       30.01R WCI  31
6HR MIN TEMP:  39; 6HR MAX TEMP:  47; 6HR PCP: TRACE;

SHERIDAN       LGT RAIN  40  37  89 NW17      30.02R WCI  31
6HR MIN TEMP:  40; 6HR MAX TEMP:  45; 6HR PCP:  0.01;

BUFFALO        LGT RAIN  39  35  86 N17G26    30.00R WCI  30
6HR MIN TEMP:  39; 6HR MAX TEMP:  46; 6HR PCP:  0.06;

GILLETTE       MOCLDY    43  37  79 CALM      29.96R
6HR MIN TEMP:  35; 6HR MAX TEMP:  45;

HULETT         CLOUDY    37  34  87 S5        29.97R WCI  34
NEWCASTLE      FAIR      41  34  75 N8        29.95S

$$
WYZ014>020-022>026-101>103-281300-
CENTRAL WYOMING

CITY           SKY/WX    TMP DP  RH WIND       PRES   REMARKS
BIG PINEY      CLOUDY    33  26  75 N10       29.99R WCI  25
6HR MIN TEMP:  32; 6HR MAX TEMP:  34;

PINEDALE       CLOUDY    32  28  86 NW9       29.99R WCI  24
DUBOIS         CLOUDY    32  30  93 SE5       30.00R WCI  27
LANDER         CLOUDY    38  36  92 NW6       29.96R WCI  33
6HR MIN TEMP:  34; 6HR MAX TEMP:  41; 6HR PCP:  0.24;

RIVERTON       MOCLDY    37  34  89 N22G29    29.96S WCI  26
6HR MIN TEMP:  36; 6HR MAX TEMP:  41; 6HR PCP:  0.05;

CASPER         CLOUDY    41  36  82 E9        29.92R
6HR MIN TEMP:  38; 6HR MAX TEMP:  44;

DOUGLAS        CLOUDY    39  37  92 N3        29.93R
6HR MIN TEMP:  38; 6HR MAX TEMP:  47; 6HR PCP:  0.02;


$$
WYZ021-027>030-104>119-281300-
SOUTHERN WYOMING

CITY           SKY/WX    TMP DP  RH WIND       PRES   REMARKS
EVANSTON       CLOUDY    31  27  85 N12       30.01R WCI  22
6HR MIN TEMP:  31; 6HR MAX TEMP:  32;

KEMMERER         N/A     30  28  93 W8        30.00R WCI  23
FORT BRIDGER   FLURRIES  32  32 100 NW12      30.03R WCI  23
ROCK SPRINGS   LGT SNOW  34  31  88 N12       29.94R FOG     WCI  25
6HR MIN TEMP:  34; 6HR MAX TEMP:  37; 6HR PCP:  0.01;

DIXON            N/A     36  34  94 CALM      29.90R
RAWLINS        CLOUDY    36  33  89 NE8       29.90R WCI  30
6HR MIN TEMP:  36; 6HR MAX TEMP:  37;

SARATOGA       CLOUDY    34  34 100 SW3       29.88S
LARAMIE        CLOUDY    35  34  96 NE8       29.87R WCI  29
6HR MIN TEMP:  33; 6HR MAX TEMP:  35; 6HR PCP: TRACE;

CHEYENNE       FOG       37  37 100 N16       29.86S VSB 1/4 WCI  28
6HR MIN TEMP:  37; 6HR MAX TEMP:  43; 6HR PCP:  0.02;

TORRINGTON     CLOUDY    45  43  93 NE10      29.87S
6HR MIN TEMP:  44; 6HR MAX TEMP:  46; 6HR PCP:  0.14;

PINE BLUFFS    CLOUDY    41  41 100 NE6       29.86S

$$




USA.gov is the U.S. government's official web portal to all federal, state and local government web resources and services.